Weather History for Chico, CA

Change the Weather History Date:

Monday, October 28, 2013

  Actual Average (KOVE) Record (KOVE)
Temperature  
Mean Temperature 50 °F -  
Max Temperature 57 °F 73 °F 87 °F (2003)
Min Temperature 42 °F 47 °F 35 °F (1956)
Degree Days  
Heating Degree Days 16    
Moisture  
Dew Point 42 °F    
Average Humidity 74    
Maximum Humidity 93    
Minimum Humidity 48    
Precipitation  
Precipitation 0.00 in - - ()
Sea Level Pressure  
Sea Level Pressure 29.70 in    
Wind  
Wind Speed 6 mph (East)    
Max Wind Speed 17 mph    
Max Gust Speed -    
Visibility 10 miles    
Events      
Averages and records for this station are not official NWS values.
T = Trace of Precipitation, MM = Missing Value Source: NWS Daily Summary

Daily Weather History Graph

Daily Weather History Graph

Search for Another Location

Airport:

Trip Planner

Search our weather history database for the weather conditions in past years. The results will help you decide how hot, cold, wet, or windy it might be!

Date:

Astronomy

Oct. 28, 2013 Rise Set
Actual Time 7:32 AM PDT 6:09 PM PDT
Civil Twilight 7:04 AM PDT 6:37 PM PDT
Nautical Twilight 6:32 AM PDT 7:09 PM PDT
Astronomical Twilight 6:01 AM PDT 7:40 PM PDT
Moon 1:30 AM PDT (10/28) 2:54 PM PDT (10/28)
Length of Visible Light 11h 33m
Length of Day
10h 37m
Waning Crescent, 33% of the Moon is Illuminated
Oct 28
Waning Crescent
Nov 3
New
Nov 9
First Quarter
Nov 17
Full
Nov 25
Last Quarter

Hourly Weather History & Observations

Time (PDT) Temp. Windchill Dew Point Humidity Pressure Visibility Wind Dir Wind Speed Gust Speed Precip Events Conditions
12:15 AM 48.2 °F - 44.6 °F 87% 29.64 in 10.0 mi NNW 5.8 mph - N/A   Scattered Clouds
12:35 AM 48.2 °F - 44.6 °F 87% 29.64 in 10.0 mi NNE 5.8 mph - N/A   Clear
12:55 AM 48.2 °F - 44.6 °F 87% 29.64 in 10.0 mi NE 5.8 mph - N/A   Mostly Cloudy
1:15 AM 48.2 °F - 44.6 °F 87% 29.64 in 10.0 mi NE 4.6 mph - N/A   Mostly Cloudy
1:35 AM 46.4 °F 44.3 °F 44.6 °F 93% 29.63 in 10.0 mi North 4.6 mph - N/A   Clear
1:55 AM 46.4 °F 45.2 °F 42.8 °F 87% 29.62 in 10.0 mi NNE 3.5 mph - N/A   Clear
2:15 AM 46.4 °F 44.3 °F 42.8 °F 87% 29.62 in 10.0 mi ENE 4.6 mph - N/A   Clear
2:35 AM 46.4 °F 45.2 °F 42.8 °F 87% 29.62 in 10.0 mi ENE 3.5 mph - N/A   Clear
2:55 AM 46.4 °F - 41.0 °F 81% 29.62 in 10.0 mi Calm Calm - N/A   Clear
3:15 AM 44.6 °F - 42.8 °F 93% 29.62 in 10.0 mi Calm Calm - N/A   Clear
3:35 AM 44.6 °F 43.1 °F 41.0 °F 87% 29.61 in 10.0 mi SE 3.5 mph - N/A   Clear
3:55 AM 44.6 °F 42.2 °F 41.0 °F 87% 29.61 in 10.0 mi ESE 4.6 mph - N/A   Clear
4:15 AM 44.6 °F - 41.0 °F 87% 29.62 in 10.0 mi Calm Calm - N/A   Clear
4:35 AM 44.6 °F 43.1 °F 41.0 °F 87% 29.63 in 10.0 mi East 3.5 mph - N/A   Mostly Cloudy
4:55 AM 44.6 °F 42.2 °F 41.0 °F 87% 29.63 in 10.0 mi SE 4.6 mph - N/A   Mostly Cloudy
5:15 AM 44.6 °F 40.7 °F 41.0 °F 87% 29.64 in 10.0 mi SE 6.9 mph - N/A   Overcast
5:35 AM 44.6 °F 43.1 °F 41.0 °F 87% 29.64 in 10.0 mi ESE 3.5 mph - N/A   Scattered Clouds
5:55 AM 44.6 °F 40.7 °F 41.0 °F 87% 29.64 in 10.0 mi SE 6.9 mph - N/A   Partly Cloudy
6:15 AM 46.4 °F - 41.0 °F 81% 29.65 in 10.0 mi Calm Calm - N/A   Clear
6:35 AM 44.6 °F - 41.0 °F 87% 29.65 in 10.0 mi Calm Calm - N/A   Clear
6:50 AM 44.6 °F 40.7 °F 41.0 °F 87% 29.65 in 10.0 mi ESE 6.9 mph - N/A   Mostly Cloudy
6:55 AM 44.6 °F 40.7 °F 41.0 °F 87% 29.65 in 10.0 mi ESE 6.9 mph - N/A   Clear
7:15 AM 44.6 °F 43.1 °F 41.0 °F 87% 29.66 in 10.0 mi East 3.5 mph - N/A   Clear
7:35 AM 42.8 °F 40.1 °F 39.2 °F 87% 29.66 in 10.0 mi SE 4.6 mph - N/A   Mostly Cloudy
7:55 AM 46.4 °F 43.5 °F 41.0 °F 81% 29.67 in 40.0 mi ESE 5.8 mph - N/A   Mostly Cloudy
8:50 AM 50.0 °F - 44.6 °F 82% 29.70 in 40.0 mi SE 11.5 mph - N/A   Mostly Cloudy
9:50 AM 50.0 °F - 46.4 °F 87% 29.71 in 40.0 mi SE 11.5 mph - N/A   Mostly Cloudy
10:50 AM 51.8 °F - 46.4 °F 82% 29.72 in 40.0 mi SE 13.8 mph - N/A   Mostly Cloudy
11:50 AM 55.4 °F - 44.6 °F 67% 29.72 in 40.0 mi SE 11.5 mph - N/A   Mostly Cloudy
12:50 PM 55.4 °F - 44.6 °F 67% 29.71 in 40.0 mi SE 11.5 mph - N/A   Mostly Cloudy
1:53 PM 57.2 °F - 41.0 °F 55% 29.70 in 40.0 mi SSE 17.3 mph - N/A   Overcast
2:47 PM 57.2 °F - 41.0 °F 55% 29.70 in 40.0 mi SE 13.8 mph - N/A   Overcast
3:47 PM 57.2 °F - 41.0 °F 55% 29.71 in 25.0 mi SE 13.8 mph - N/A   Mostly Cloudy
4:47 PM 57.2 °F - 39.2 °F 51% 29.72 in 25.0 mi SE 17.3 mph - N/A   Overcast
5:47 PM 57.2 °F - 41.0 °F 55% 29.72 in 25.0 mi ESE 11.5 mph - N/A   Mostly Cloudy
6:47 PM 57.2 °F - 41.0 °F 55% 29.73 in 10.0 mi ESE 11.5 mph - N/A   Overcast
7:55 PM 57.2 °F - 37.4 °F 48% 29.75 in 10.0 mi ENE 3.5 mph - N/A   Overcast
8:15 PM 57.2 °F - 37.4 °F 48% 29.76 in 10.0 mi East 3.5 mph - N/A   Overcast
8:35 PM 57.2 °F - 39.2 °F 51% 29.77 in 10.0 mi Calm Calm - N/A   Overcast
8:55 PM 57.2 °F - 39.2 °F 51% 29.78 in 10.0 mi Calm Calm - N/A   Overcast
9:15 PM 57.2 °F - 39.2 °F 51% 29.79 in 10.0 mi East 5.8 mph - N/A   Overcast
9:35 PM 55.4 °F - 41.0 °F 58% 29.80 in 10.0 mi ENE 3.5 mph - N/A   Overcast
9:55 PM 55.4 °F - 42.8 °F 63% 29.80 in 10.0 mi NE 6.9 mph - N/A   Overcast
10:15 PM 55.4 °F - 41.0 °F 58% 29.81 in 10.0 mi ENE 10.4 mph - N/A   Overcast
10:35 PM 55.4 °F - 41.0 °F 58% 29.82 in 10.0 mi ENE 11.5 mph - N/A   Overcast
10:55 PM 55.4 °F - 41.0 °F 58% 29.83 in 10.0 mi ENE 10.4 mph - N/A   Overcast
11:15 PM 55.4 °F - 41.0 °F 58% 29.84 in 10.0 mi ENE 6.9 mph - N/A   Overcast
11:35 PM 53.6 °F - 42.8 °F 67% 29.84 in 10.0 mi ENE 8.1 mph - N/A   Overcast
11:55 PM 53.6 °F - 44.6 °F 72% 29.85 in 10.0 mi ENE 6.9 mph - N/A   Overcast